Flag Weather past 2 weeks in Allentown, Pennsylvania, U.S.A.

Now
33 °F

Light snow. Fog.


Feels Like: 27 °F
Forecast: 33 / 40 °F
Wind: 7 mph from Northeast

Location: Lehigh Valley International Airport

Current Time: Nov 26, 2014 at 12:53:44 PM

Latest Report: Nov 26, 2014 at 11:51 AM


Visibility: 1 mi

Pressure: 30.04 "Hg

Humidity: 92%

Dew point: 31 °F

Location of AllentownLocation

Historic Weather in Allentown — Graph

°F

Allentown temperature yesterday

Maximum temperature yesterday: 60 °F (at 12:51 AM)
Minimum temperature yesterday: 36 °F (at 11:51 PM)
Average temperature yesterday: 49 °F

Past Weeks' High & Low Weather Summary

 TemperatureHumidityPressure
High71 °F (Nov 24, 12:51 PM)94% (Nov 24, 1:01 AM)30.52 "Hg (Nov 24, 1:01 AM)
Low16 °F (Nov 22, 2:51 AM)26% (Nov 23, 1:51 PM)29.53 "Hg (Nov 17, 3:51 PM)
Average39 °F60%30.07 "Hg
* Reported Nov 11 10:51 AM — Nov 26 10:51 AM, Allentown, Weather by CustomWeather, © 2014

Note: Actual official high and low records may vary slightly from our data, if they occured in-between our weather recording intervals... More about our weather records

Advertising

Allentown weather history for previous 24 hours

 ConditionsComfort  
Time TempWeatherWind HumidityBarometerVisibility
10:51 AM
Nov 26
33 °FSnow. Fog.3 mph92%30.10 "Hg1 mi
9:51 AM34 °FLight snow. Fog.3 mph88%30.14 "Hg1 mi
8:59 AM36 °FRain. Fog.8 mph87%30.12 "Hg2 mi
7:51 AM38 °FLight rain. Overcast.12 mph79%30.11 "Hg6 mi
6:51 AM42 °FLight rain. Overcast.5 mph62%30.15 "Hg10 mi
5:51 AM43 °FMostly cloudy.12 mph56%30.13 "Hg10 mi
4:51 AM39 °FOvercast.No wind76%30.14 "Hg10 mi
3:51 AM38 °FOvercast.3 mph79%30.18 "Hg10 mi
2:51 AM38 °FPassing clouds.3 mph79%30.19 "Hg10 mi
1:51 AM38 °FClear.No wind76%30.19 "Hg10 mi
12:51 AM37 °FClear.No wind79%30.17 "Hg10 mi
11:51 PM
Nov 25
36 °FClear.3 mph79%30.19 "Hg10 mi
10:51 PM38 °FClear.No wind70%30.17 "Hg10 mi
9:51 PM37 °FClear.3 mph70%30.14 "Hg10 mi
8:51 PM40 °FClear.No wind60%30.12 "Hg10 mi
7:51 PM44 °FClear.3 mph51%30.10 "Hg10 mi
6:51 PM41 °FClear.3 mph58%30.09 "Hg10 mi
5:51 PM44 °FClear.No wind49%30.05 "Hg10 mi
4:51 PM45 °FClear.3 mph49%30.03 "Hg10 mi
3:51 PM52 °FSunny.9 mph38%30.01 "Hg10 mi
2:51 PM53 °FSunny.12 mph35%29.99 "Hg10 mi
1:51 PM53 °FSunny.12 mph35%30.00 "Hg10 mi
12:51 PM53 °FSunny.9 mph39%30.01 "Hg10 mi
Weather by CustomWeather, © 2014

See weather overviewHow to use our weather pages